カタログに戻る

O3B FM13

運用中通信MEO
NORAD 43234·PAYLOAD·🇱🇺 Luxembourg

打ち上げ Mar 9, 2018 から Guiana Space Centre

Loading…

次のパス (今後24時間)

TLE

最新Source: CelesTrak SupGP

元期: Sep 14, 2026, 16:59 UTC

1 43234C 18024D   26257.70833333  .00000000  00000+0  00000+0 0  2578
2 43234   0.0568 342.5405 0000958 121.6922  85.7052  5.00115796    17

AllMySatでO3B FM13をリアルタイム追跡

Download on the App Store